Regional Weather Roundup
Issued by NWS Cleveland, OH

Home | Current Version | Previous Version | Text Only | Print | Product List | Glossary Off
Versions: 1 2 3 4 5 6 7 8 9 10 11 12 13 14 15 16 17 18 19 20 21 22 23 24 25 26 27 28 29 30 31 32 33 34 35 36 37 38 39 40 41 42 43 44 45 46 47 48 49 50

000
ASUS41 KCLE 200600
RWRCLE
OHIO REGIONAL WEATHER ROUNDUP
NATIONAL WEATHER SERVICE WILMINGTON, OH
200 AM EDT WED AUG 20 2014

NOTE: "FAIR" INDICATES FEW OR NO CLOUDS BELOW 12,000 FEET WITH NO
SIGNIFICANT WEATHER AND/OR OBSTRUCTIONS TO VISIBILITY.

OHZ001>008-015>018-024>027-034-035-043-044-200700-
   NORTHWEST OHIO

CITY           SKY/WX    TMP DP  RH WIND       PRES   REMARKS
DEFIANCE       FAIR      69  65  86 CALM      29.78F
FINDLAY        MOCLDY    69  66  90 SE9       29.81R
TOLEDO EXPRESS FAIR      67  66  97 CALM      29.79S
TOLEDO METCALF FAIR      68  62  81 CALM      29.80F
LIMA             N/A     70  66  87 MISG      29.82S THUNDER
$$

OHZ009>014-019>023-028>033-038-089-200700-
   NORTHEAST OHIO

CITY           SKY/WX    TMP DP  RH WIND       PRES   REMARKS
CLE-HOPKINS    CLOUDY    68  66  93 S8        29.85F
CLE-LAKEFRONT  CLOUDY    69  66  90 S12       29.82S
CUY CO. ARPT   NOT AVBL
LORAIN-ELYRIA  LGT RAIN  71  66  84 S9        29.84S
ASHTABULA      LGT RAIN  66  63  90 SE12      29.87S
AKRON-CANTON   FAIR      67  63  87 SE9       29.86F
WOOSTER        NOT AVBL
MANSFIELD      FAIR      68  67  96 E7        29.85F FOG
YOUNGSTOWN     TSTM      65  63  93 SE8       29.89F
$$

OHZ042-051>053-060>062-070>072-077>081-200700-
  SOUTHWEST OHIO

CITY           SKY/WX    TMP DP  RH WIND       PRES   REMARKS
CINC-COVINGTON TSTM      68  64  87 NW29G45   29.90R VSB 1
CINC-LUNKEN    TSTM      72  62  71 NW20G39   29.90R
HAMILTON       TSTM      66  65  96 W7        29.90R FOG
DAYTON         NOT AVBL
WRIGHT-PAT AFB NOT AVBL
DAYTON GENERAL FAIR      74  69  85 S7        29.83F
WILMINGTON     MOCLDY    72  68  87 S7        29.84F
$$

OHZ036-037-039>041-045>050-054>059-063>069-073>076-082>088-200700-
  CENTRAL AND SOUTHEAST OHIO

CITY           SKY/WX    TMP DP  RH WIND       PRES   REMARKS
COLUMBUS       MOCLDY    78  68  71 SE5       29.83F
OSU AIRPORT    FAIR      74  68  81 SE5       29.83F
BOLTON FIELD   NOT AVBL
RICKENBACK AFB NOT AVBL
NEWARK         FAIR      72  69  90 CALM      29.84F FOG
MARION         MOCLDY    68  63  84 E5        29.84S
LANCASTER      MOCLDY    75  69  81 S6        29.85F
ZANESVILLE     FAIR      75  69  81 S8        29.85F
NEW PHILLY     TSTM      66  65  96 MISG      29.90R
$$



USA.gov is the U.S. government's official web portal to all federal, state and local government web resources and services.